Simultaneous Nadir Overpasses (SNOs) Predictions

Prediction of SNOs between FY3D and NOAA-19 Satellite Orbit:

Table of predicted SNOs for the next 14.0 days since TLE Epoch: 7/1/2023
Index Date (FY3D) Time (FY3D) Lat,Lon (FY3D) SZA (FY3D ) Date (NOAA-19) Time (NOAA-19) Lat,Lon (NOAA-19) SZA (NOAA-19 ) Distance(km) Time Diff (sec)
1 07/07/2023 00:46:18 76.54, 159.97 54.05 07/07/2023 00:45:07 76.52, 159.89 54.05 2.99 71
2 07/07/2023 01:37:03 -76.54, -32.71 125.95 07/07/2023 01:36:01 -76.56, -32.67 125.92 2.74 62
3 07/07/2023 02:27:50 76.56, 134.50 54.09 07/07/2023 02:27:05 76.56, 134.57 54.09 1.85 45
4 07/07/2023 03:18:35 -76.56, -58.18 125.92 07/07/2023 03:18:00 -76.56, -58.16 125.91 0.55 35
5 07/07/2023 04:09:22 76.58, 109.03 54.12 07/07/2023 04:09:04 76.56, 109.08 54.10 2.73 18
6 07/07/2023 05:00:07 -76.58, -83.65 125.88 07/07/2023 04:59:59 -76.56, -83.65 125.90 2.54 8
7 07/07/2023 05:50:53 76.56, 83.73 54.10 07/07/2023 05:51:03 76.56, 83.59 54.11 3.69 10
8 07/07/2023 06:41:39 -76.61,-109.12 125.85 07/07/2023 06:41:57 -76.60,-108.97 125.86 3.97 18
9 07/07/2023 07:32:25 76.59, 58.26 54.14 07/07/2023 07:33:01 76.61, 58.27 54.15 2.25 36
10 07/07/2023 08:23:10 -76.59,-134.42 125.86 07/07/2023 08:23:56 -76.60,-134.46 125.85 2.32 46
11 07/07/2023 09:13:57 76.61, 32.79 54.17 07/07/2023 09:15:00 76.61, 32.78 54.16 0.40 63
12 07/07/2023 10:04:42 -76.61,-159.89 125.83 07/07/2023 10:05:55 -76.60,-159.95 125.84 1.60 73



Historial Predications of SNOs between FY3D and NOAA-19
